Tracking 35280 objects as of 7-Sep-2026
HD Live streaming from Space Station
objects crossing your sky now

COSMOS 1646 DEB


COSMOS 1646 DEB is no longer on orbit


NORAD ID: 18660
Int'l Code: 1985-030V
Launch date: April 18, 1985
Source: Commonwealth of Independent States (former USSR) (CIS)
Launch site: TYURATAM MISSILE AND SPACE COMPLEX (TTMTR)
Decay date: 1987-12-28

Note: This is SATELLITE DEBRIS
Your satellite tracking list
Your tracking list is empty




NASA's NSSDC Master Catalog

Two Line Element Set (TLE):
1 18660U 85030  V 87360.82902627  .04829091 +58000-5 +41962-2 0  9992
2 18660 065.0101 156.6480 0016075 287.5871 073.8426 16.12537316005373
Source of the keplerian elements: AFSPC